Weather History for Goshen, IN

Change the Weather History Date:

Wednesday, August 29, 2012

  Actual Average Record
Temperature  
Mean Temperature 68 °F -  
Max Temperature 81 °F 81 °F 98 °F (1953)
Min Temperature 55 °F 59 °F 37 °F (1965)
Cooling Degree Days 3    
Growing Degree Days 18 (Base 50)    
Moisture  
Dew Point 56 °F    
Average Humidity 82    
Maximum Humidity 100    
Minimum Humidity 39    
Precipitation  
Precipitation 0.00 in - - ()
Sea Level Pressure  
Sea Level Pressure 30.08 in    
Wind  
Wind Speed 0 mph (ESE)    
Max Wind Speed 5 mph    
Max Gust Speed -    
Visibility 5 miles    
Events Fog    
Averages and records for this station are not official NWS values.
T = Trace of Precipitation, MM = Missing Value Source: NWS Daily Summary

Daily Weather History Graph

Daily Weather History Graph

Search for Another Location

Airport:

Trip Planner

Search our weather history database for the weather conditions in past years. The results will help you decide how hot, cold, wet, or windy it might be!

Date:

Astronomy

Aug. 29, 2012 Rise Set
Actual Time 7:06 AM EDT 8:20 PM EDT
Civil Twilight 6:38 AM EDT 8:48 PM EDT
Nautical Twilight 6:03 AM EDT 9:23 PM EDT
Astronomical Twilight 5:27 AM EDT 9:59 PM EDT
Moon 7:00 PM EDT (8/29) 5:00 AM EDT (8/29)
Length of Visible Light 14h 10m
Length of Day
13h 13m
Waxing Gibbous, 96% of the Moon is Illuminated
Aug 29
Waxing Gibbous
Aug 31
Full
Sep 8
Last Quarter
Sep 15
New
Sep 22
First Quarter

Hourly Weather History & Observations

Time (EDT) Temp. Heat Index Dew Point Humidity Pressure Visibility Wind Dir Wind Speed Gust Speed Precip Events Conditions
12:53 AM 62.1 °F - 57.9 °F 86% 30.07 in 10.0 mi Calm Calm - N/A   Clear
1:53 AM 61.0 °F - 57.9 °F 90% 30.07 in 10.0 mi Calm Calm - N/A   Clear
2:53 AM 59.0 °F - 57.0 °F 93% 30.08 in 10.0 mi Calm Calm - N/A   Clear
3:43 AM 57.2 °F - 55.4 °F 94% 30.08 in 1.5 mi Calm Calm - N/A   Clear
3:51 AM 57.2 °F - 55.4 °F 94% 30.08 in 0.5 mi Calm Calm - N/A Fog Fog
3:52 AM 57.9 °F - 55.9 °F 93% 30.07 in 0.5 mi Calm Calm - N/A Fog Fog
3:59 AM 57.2 °F - 55.4 °F 94% 30.08 in 1.0 mi Calm Calm - N/A   Clear
4:06 AM 57.2 °F - 55.4 °F 94% 30.08 in 3.0 mi Calm Calm - N/A   Clear
4:24 AM 55.4 °F - 55.4 °F 100% 30.08 in 1.2 mi Calm Calm - N/A   Clear
4:27 AM 55.4 °F - 55.4 °F 100% 30.08 in 0.5 mi Calm Calm - N/A Fog Fog
4:46 AM 57.2 °F - 55.4 °F 94% 30.08 in 1.0 mi Calm Calm - N/A   Clear
4:53 AM 57.0 °F - 55.9 °F 96% 30.07 in 1.5 mi Calm Calm - N/A   Clear
5:19 AM 55.4 °F - 53.6 °F 94% 30.08 in 0.5 mi Calm Calm - N/A Fog Fog
5:53 AM 55.9 °F - 55.0 °F 97% 30.08 in 0.2 mi Calm Calm - N/A Fog Fog
6:11 AM 55.4 °F - 53.6 °F 94% 30.09 in 0.8 mi Calm Calm - N/A   Clear
6:18 AM 55.4 °F - 53.6 °F 94% 30.09 in 1.8 mi Calm Calm - N/A   Clear
6:25 AM 55.4 °F - 53.6 °F 94% 30.09 in 2.0 mi Calm Calm - N/A   Clear
6:29 AM 55.4 °F - 53.6 °F 94% 30.09 in 0.8 mi Calm Calm - N/A   Clear
6:36 AM 55.4 °F - 53.6 °F 94% 30.09 in 0.2 mi Calm Calm - N/A Fog Fog
6:53 AM 55.9 °F - 54.0 °F 93% 30.09 in 0.2 mi Calm Calm - N/A Fog Fog
7:27 AM 55.4 °F - 53.6 °F 94% 30.10 in 0.2 mi Calm Calm - N/A Fog Fog
7:53 AM 55.9 °F - 55.0 °F 97% 30.11 in 0.2 mi Calm Calm - N/A Fog Fog
8:10 AM 57.2 °F - 57.2 °F 100% 30.11 in 1.0 mi Calm Calm - N/A   Clear
8:14 AM 59.0 °F - 57.2 °F 94% 30.11 in 3.0 mi Calm Calm - N/A   Clear
8:53 AM 64.9 °F - 60.1 °F 84% 30.10 in 8.0 mi ESE 4.6 mph - N/A   Clear
9:53 AM 70.0 °F - 62.1 °F 76% 30.11 in 10.0 mi Calm Calm - N/A   Clear
10:53 AM 73.9 °F - 61.0 °F 64% 30.12 in 10.0 mi ESE 4.6 mph - N/A   Clear
11:53 AM 77.0 °F - 57.0 °F 50% 30.11 in 10.0 mi Calm Calm - N/A   Clear
12:53 PM 77.0 °F - 55.9 °F 48% 30.11 in 10.0 mi Calm Calm - N/A   Clear
1:53 PM 79.0 °F - 55.9 °F 45% 30.10 in 10.0 mi SE 3.5 mph - N/A   Clear
2:53 PM 80.1 °F 79.9 °F 53.1 °F 39% 30.08 in 10.0 mi ENE 4.6 mph - N/A   Clear
4:53 PM 81.0 °F 80.5 °F 54.0 °F 39% 30.05 in 10.0 mi Calm Calm - N/A   Clear
5:53 PM 81.0 °F 80.8 °F 55.9 °F 42% 30.04 in 10.0 mi Calm Calm - N/A   Clear
6:53 PM 79.0 °F - 57.0 °F 47% 30.04 in 10.0 mi Calm Calm - N/A   Clear
7:53 PM 75.0 °F - 62.1 °F 64% 30.03 in 10.0 mi East 3.5 mph - N/A   Clear
8:53 PM 69.1 °F - 60.1 °F 73% 30.04 in 10.0 mi Calm Calm - N/A   Clear
9:53 PM 64.9 °F - 59.0 °F 81% 30.05 in 10.0 mi Calm Calm - N/A   Clear
10:53 PM 63.0 °F - 59.0 °F 87% 30.06 in 10.0 mi Calm Calm - N/A   Clear
11:53 PM 60.1 °F - 57.0 °F 90% 30.06 in 9.0 mi Calm Calm - N/A   Clear